Weather History for Greenville, AL

Change the Weather History Date:

Monday, September 3, 2012

  Actual Average Record
Temperature  
Mean Temperature 78 °F -  
Max Temperature 84 °F 89 °F 102 °F (1951)
Min Temperature 72 °F 67 °F 55 °F (1967)
Cooling Degree Days 13    
Growing Degree Days 28 (Base 50)    
Moisture  
Dew Point 73 °F    
Average Humidity 90    
Maximum Humidity 97    
Minimum Humidity 69    
Precipitation  
Precipitation 0.38 in - - ()
Sea Level Pressure  
Sea Level Pressure 29.97 in    
Wind  
Wind Speed 5 mph (SSW)    
Max Wind Speed 14 mph    
Max Gust Speed 24 mph    
Visibility 8 miles    
Events Rain , Thunderstorm    
Averages and records for this station are not official NWS values.
T = Trace of Precipitation, MM = Missing Value Source: NWS Daily Summary

Daily Weather History Graph

Daily Weather History Graph

Search for Another Location

Airport:

Trip Planner

Search our weather history database for the weather conditions in past years. The results will help you decide how hot, cold, wet, or windy it might be!

Date:

Astronomy

Sep. 03, 2012 Rise Set
Actual Time 6:23 AM CDT 7:07 PM CDT
Civil Twilight 5:58 AM CDT 7:31 PM CDT
Nautical Twilight 5:29 AM CDT 8:01 PM CDT
Astronomical Twilight 4:59 AM CDT 8:30 PM CDT
Moon 8:43 PM CDT (9/3) 9:15 AM CDT (9/3)
Length of Visible Light 13h 33m
Length of Day
12h 43m
Waning Gibbous, 90% of the Moon is Illuminated
Sep 3
Waning Gibbous
Sep 8
Last Quarter
Sep 15
New
Sep 22
First Quarter
Sep 29
Full

Hourly Weather History & Observations

Time (CDT) Temp. Heat Index Dew Point Humidity Pressure Visibility Wind Dir Wind Speed Gust Speed Precip Events Conditions
12:56 AM 75.9 °F - 73.9 °F 94% 29.96 in 10.0 mi SW 5.8 mph - N/A   Clear
1:46 AM 75.9 °F - 73.9 °F 94% 29.97 in 8.0 mi SSW 3.5 mph - N/A   Scattered Clouds
1:56 AM 75.9 °F - 73.9 °F 94% 29.96 in 7.0 mi SSW 4.6 mph - N/A   Mostly Cloudy
2:14 AM 75.9 °F - 73.9 °F 94% 29.97 in 7.0 mi SSW 4.6 mph - N/A   Overcast
2:56 AM 75.9 °F - 75.0 °F 97% 29.95 in 6.0 mi SW 4.6 mph - N/A   Overcast
3:56 AM 77.0 °F - 75.0 °F 94% 29.97 in 7.0 mi WSW 5.8 mph - N/A   Overcast
4:22 AM 77.0 °F - 75.0 °F 94% 29.99 in 7.0 mi WSW 4.6 mph - N/A   Overcast
4:56 AM 77.0 °F - 75.0 °F 94% 29.98 in 6.0 mi SW 3.5 mph - N/A   Overcast
5:32 AM 77.0 °F - 75.0 °F 94% 30.00 in 6.0 mi SSW 3.5 mph - N/A   Scattered Clouds
5:56 AM 77.0 °F - 75.0 °F 94% 29.98 in 5.0 mi South 3.5 mph - N/A   Scattered Clouds
6:24 AM 75.9 °F - 75.0 °F 97% 30.00 in 5.0 mi South 3.5 mph - N/A   Mostly Cloudy
6:34 AM 77.0 °F - 75.0 °F 94% 30.00 in 5.0 mi SSW 5.8 mph - N/A   Scattered Clouds
6:43 AM 77.0 °F - 75.0 °F 94% 30.00 in 4.0 mi South 4.6 mph - N/A   Mostly Cloudy
6:56 AM 77.0 °F - 75.0 °F 94% 29.99 in 4.0 mi SSW 6.9 mph - N/A   Partly Cloudy
7:15 AM 77.0 °F - 75.0 °F 94% 30.01 in 4.0 mi SSW 8.1 mph - N/A   Scattered Clouds
7:56 AM 78.1 °F - 75.9 °F 93% 29.99 in 5.0 mi SW 8.1 mph - N/A   Mostly Cloudy
8:48 AM 79.0 °F - 75.9 °F 90% 30.01 in 7.0 mi SW 5.8 mph - N/A   Mostly Cloudy
8:56 AM 79.0 °F - 75.9 °F 90% 30.00 in 7.0 mi West 5.8 mph - N/A   Overcast
9:08 AM 80.1 °F 85.4 °F 75.9 °F 87% 30.02 in 9.0 mi SW 4.6 mph - N/A   Scattered Clouds
9:56 AM 82.0 °F 88.6 °F 75.0 °F 79% 30.01 in 10.0 mi SW 9.2 mph - N/A   Clear
10:56 AM 82.0 °F 89.4 °F 75.9 °F 82% 30.01 in 10.0 mi WSW 8.1 mph - N/A   Clear
11:56 AM 82.9 °F 90.8 °F 75.9 °F 79% 30.01 in 10.0 mi WSW 6.9 mph - 0.00 in   Clear
12:56 PM 84.9 °F 93.3 °F 75.0 °F 72% 29.99 in 10.0 mi WSW 6.9 mph - 0.00 in Rain Light Rain
1:56 PM 84.0 °F 90.2 °F 73.0 °F 69% 29.96 in 10.0 mi Variable 4.6 mph - 0.00 in   Clear
2:56 PM 81.0 °F 86.2 °F 73.9 °F 79% 29.93 in 10.0 mi South 9.2 mph - 0.00 in Rain Light Rain
3:56 PM 79.0 °F - 75.0 °F 88% 29.91 in 10.0 mi SW 9.2 mph - 0.00 in Rain Light Rain
4:56 PM 78.1 °F - 69.1 °F 74% 29.91 in 10.0 mi Calm Calm - 0.00 in   Clear
5:56 PM 78.1 °F - 69.1 °F 74% 29.92 in 10.0 mi Calm Calm - N/A   Clear
6:56 PM 78.1 °F - 70.0 °F 76% 29.94 in 10.0 mi Calm Calm - N/A   Partly Cloudy
7:09 PM 78.1 °F - 70.0 °F 76% 29.95 in 10.0 mi Calm Calm - N/A Thunderstorm Thunderstorm
7:48 PM 73.9 °F - 70.0 °F 87% 29.96 in 2.5 mi North 8.1 mph - 0.19 in Rain , Thunderstorm Heavy Thunderstorms and Rain
7:56 PM 72.0 °F - 71.1 °F 97% 29.94 in 2.0 mi East 6.9 mph - 0.27 in Rain , Thunderstorm Heavy Thunderstorms and Rain
8:04 PM 72.0 °F - 71.1 °F 97% 29.96 in 7.0 mi SE 3.5 mph - 0.01 in Rain , Thunderstorm Light Thunderstorms and Rain
8:12 PM 72.0 °F - 71.1 °F 97% 29.96 in 10.0 mi South 3.5 mph - 0.01 in Rain , Thunderstorm Light Thunderstorms and Rain
8:40 PM 72.0 °F - 70.0 °F 93% 29.95 in 6.0 mi ESE 3.5 mph - 0.05 in Rain , Thunderstorm Thunderstorms and Rain
8:56 PM 72.0 °F - 70.0 °F 93% 29.93 in 6.0 mi SSE 5.8 mph - 0.08 in Rain , Thunderstorm Thunderstorms and Rain
9:14 PM 72.0 °F - 70.0 °F 93% 29.93 in 7.0 mi Variable 4.6 mph - 0.02 in Rain Rain
9:29 PM 73.0 °F - 71.1 °F 93% 29.94 in 10.0 mi Calm Calm - 0.03 in Rain , Thunderstorm Light Thunderstorms and Rain
9:53 PM 72.0 °F - 71.1 °F 97% 29.95 in 9.0 mi South 5.8 mph - 0.03 in   Clear
9:56 PM 72.0 °F - 71.1 °F 97% 29.93 in 9.0 mi SSE 6.9 mph - 0.03 in   Clear
10:52 PM 73.9 °F - 72.0 °F 93% 29.95 in 10.0 mi Calm Calm - N/A Thunderstorm Thunderstorm
10:56 PM 73.9 °F - 72.0 °F 93% 29.96 in 10.0 mi North 12.7 mph 17.3 mph N/A Thunderstorm Thunderstorm
11:04 PM 73.0 °F - 71.1 °F 93% 29.97 in 10.0 mi NE 11.5 mph 20.7 mph 0.00 in Rain , Thunderstorm Light Thunderstorms and Rain
11:19 PM 73.0 °F - 71.1 °F 93% 29.99 in 10.0 mi Variable 4.6 mph - 0.00 in Rain , Thunderstorm Light Thunderstorms and Rain
11:25 PM 73.0 °F - 70.0 °F 90% 30.02 in 1.8 mi WNW 13.8 mph 24.2 mph 0.21 in Rain , Thunderstorm Heavy Thunderstorms and Rain